This demonstration page uses our WeatherBlox Daily Observations layout. Learn more.

Left ArrowRight Arrow

Hourly Observations for July 5, 2018

Temp ( °F °C ) Dew Point ( °F °C ) Humidity (%) Winds ( mph kmh ) Pressure ( in mb ) Visibility ( mi km ) Precip ( " mm )
12:15 am 00:15 Cloudy with Strong Thunderstorms 67 19.7 66 18.7 94 94 NE 15 24 30.30 1026 1 1 1.18 29.97
12:35 am 00:35 Cloudy with Thunderstorms 69 20.7 68 19.9 95 95 ESE 20 31 30.24 1024 2 2 2.19 55.63
12:55 am 00:55 Cloudy with Thunderstorms 68 20 66 19.1 95 95 E 13 20 30.24 1024 10 16 2.22 56.39
1:15 am 01:15 Cloudy 67 19.4 65 18.5 95 95 E 16 26 30.21 1023 10 16 0.02 0.51
1:35 am 01:35 Partly Cloudy with Nearby Thunderstorms 68 20 66 19.1 95 95 ESE 14 22 30.21 1023 10 16 0.02 0.51
1:55 am 01:55 Mostly Cloudy with Nearby Thunderstorms 68 19.8 66 19 95 95 E 10 17 30.21 1023 10 16 0.02 0.51
2:15 am 02:15 Mostly Cloudy 67 19.2 65 18.2 94 94 ESE 14 22 30.27 1025 10 16 N/A
2:35 am 02:35 Cloudy with Nearby Thunderstorms 66 19 65 18.1 95 95 ESE 12 19 30.27 1025 10 16 N/A
2:55 am 02:55 Mostly Cloudy with Nearby Thunderstorms 66 18.8 64 18 95 95 ESE 13 20 30.27 1025 10 16 N/A
3:15 am 03:15 Mostly Cloudy 66 18.8 64 18 95 95 E 9 15 30.30 1026 10 16 N/A
3:35 am 03:35 Cloudy 66 19 65 18.1 95 95 E 14 22 30.30 1026 10 16 N/A
3:55 am 03:55 Cloudy with Nearby Thunderstorms 66 19 64 18 94 94 E 15 24 30.33 1027 10 16 N/A
4:15 am 04:15 Cloudy with Thunderstorms 66 18.7 64 17.7 94 94 E 12 19 30.33 1027 10 16 N/A
4:35 am 04:35 Clear 66 18.8 64 17.8 94 94 E 14 22 30.33 1027 10 16 N/A
4:55 am 04:55 Cloudy with Strong Thunderstorms 65 18.6 64 17.7 95 95 ESE 15 24 30.30 1026 7 11 0.08 2.03
5:15 am 05:15 Cloudy with Thunderstorms 65 18.5 64 17.6 95 95 SE 13 20 30.33 1027 4 6 0.22 5.59
5:35 am 05:35 Cloudy with Nearby Thunderstorms 65 18.4 64 17.6 95 95 SE 15 24 30.30 1026 7 11 0.24 6.10
5:55 am 05:55 Cloudy with Light Rain 65 18.4 64 17.7 96 96 ESE 8 13 30.30 1026 10 16 0.26 6.60
6:15 am 06:15 Mostly Cloudy 65 18.3 64 17.6 96 96 SE 10 17 30.30 1026 10 16 N/A
6:35 am 06:35 Partly Cloudy 65 18.2 64 17.5 96 96 SSE 9 15 30.33 1027 10 16 N/A
6:55 am 06:55 Sunny 65 18.2 64 17.5 96 96 S 8 13 30.30 1026 10 16 N/A
7:15 am 07:15 Sunny 65 18.3 64 17.6 96 96 SSE 5 7 30.30 1026 10 16 N/A
7:35 am 07:35 Sunny 65 18.5 64 17.7 95 95 S 5 7 30.30 1026 10 16 N/A
7:55 am 07:55 Partly Cloudy 65 18.5 64 17.7 95 95 N N/A 30.33 1027 10 16 N/A
8:15 am 08:15 Partly Cloudy with Nearby Thunderstorms 66 18.7 64 18 96 96 N N/A 30.33 1027 10 16 N/A
8:35 am 08:35 Partly Cloudy 66 19 65 18.2 95 95 N N/A 30.33 1027 10 16 N/A
8:55 am 08:55 Sunny 66 19.1 65 18.5 96 96 NW 6 9 30.33 1027 10 16 N/A
9:15 am 09:15 Sunny 67 19.4 66 18.7 96 96 NNW 6 9 30.33 1027 10 16 N/A
9:35 am 09:35 Sunny 67 19.7 66 19 96 96 NNW 6 9 30.33 1027 10 16 N/A
9:55 am 09:55 Sunny 68 19.8 66 19 95 95 NNW 8 13 30.33 1027 10 16 N/A
10:15 am 10:15 Sunny 68 20.1 66 19 93 93 NW 8 13 30.36 1028 10 16 N/A
10:35 am 10:35 Sunny 70 21.3 67 19.2 88 88 N 8 13 30.33 1027 10 16 N/A
10:55 am 10:55 Sunny 72 22 66 19.1 84 84 NNE 7 11 30.33 1027 10 16 N/A
11:15 am 11:15 Sunny 73 22.9 67 19.6 82 82 NNE 9 15 30.33 1027 10 16 N/A
11:35 am 11:35 Partly Cloudy 74 23.5 68 20.2 82 82 ENE 10 17 30.33 1027 10 16 N/A
11:55 am 11:55 Partly Cloudy 74 23.1 67 19.4 80 80 ENE 9 15 30.33 1027 10 16 N/A
12:15 pm 12:15 Sunny 74 23.5 67 19.7 79 79 E 9 15 30.33 1027 10 16 N/A
12:35 pm 12:35 Sunny 75 24.1 68 20.2 79 79 ENE 8 13 30.30 1026 10 16 N/A
12:55 pm 12:55 Sunny 76 24.2 68 19.9 77 77 E 8 13 30.33 1027 10 16 N/A
1:15 pm 13:15 Sunny 76 24.6 68 20 76 76 E 8 13 30.33 1027 10 16 N/A
1:35 pm 13:35 Sunny 76 24.5 67 19.4 73 73 E 7 11 30.30 1026 10 16 N/A
1:55 pm 13:55 Sunny 77 25.1 67 19.2 70 70 ENE 7 11 30.30 1026 10 16 N/A
2:15 pm 14:15 Sunny 78 25.5 66 18.9 67 67 E 8 13 30.30 1026 10 16 N/A
2:35 pm 14:35 Sunny 79 26.2 66 18.8 64 64 E 7 11 30.30 1026 10 16 N/A
2:55 pm 14:55 Partly Cloudy 79 26.3 67 19.3 65 65 ENE 7 11 30.30 1026 10 16 N/A
3:15 pm 15:15 Partly Cloudy 80 26.4 67 19.6 66 66 E 6 9 30.30 1026 10 16 N/A
3:35 pm 15:35 Partly Cloudy 79 26.3 67 19.6 67 67 E 3 6 30.30 1026 10 16 N/A
3:55 pm 15:55 Partly Cloudy 80 26.4 67 19.7 67 67 ESE 6 9 30.30 1026 10 16 N/A
4:15 pm 16:15 Partly Cloudy 80 26.6 68 19.8 66 66 ENE 8 13 30.30 1026 10 16 N/A
4:35 pm 16:35 Partly Cloudy 80 26.4 67 19.6 66 66 E 5 7 30.30 1026 10 16 N/A
4:55 pm 16:55 Partly Cloudy 80 26.7 67 19.5 65 65 E 7 11 30.30 1026 10 16 N/A
5:15 pm 17:15 Sunny 80 26.8 67 19.7 65 65 ESE 8 13 30.30 1026 10 16 N/A
5:35 pm 17:35 Sunny 80 26.6 68 19.8 66 66 E 9 15 30.27 1025 10 16 N/A
5:55 pm 17:55 Sunny 80 26.7 68 19.9 66 66 E 10 17 30.27 1025 10 16 N/A
6:15 pm 18:15 Sunny 80 26.5 66 19.1 64 64 ESE 9 15 30.27 1025 10 16 N/A
6:35 pm 18:35 Sunny 79 26.1 68 20.1 70 70 ESE 10 17 30.27 1025 10 16 N/A
6:55 pm 18:55 Sunny 78 25.7 67 19.5 69 69 ESE 10 17 30.27 1025 10 16 N/A
7:15 pm 19:15 Sunny 78 25.8 67 19.3 67 67 ESE 8 13 30.27 1025 10 16 N/A
7:35 pm 19:35 Sunny 78 25.6 67 19.6 70 70 ESE 7 11 30.27 1025 10 16 N/A
7:55 pm 19:55 Sunny 78 25.4 68 20.1 73 73 ESE 7 11 30.27 1025 10 16 N/A
8:15 pm 20:15 Sunny 77 25 68 20.1 74 74 E 6 9 30.30 1026 10 16 N/A
8:35 pm 20:35 Sunny 76 24.4 69 20.8 80 80 E 6 9 30.30 1026 10 16 N/A
8:55 pm 20:55 Sunny 75 24 69 20.5 81 81 E 6 9 30.30 1026 10 16 N/A
9:15 pm 21:15 Clear 73 23 69 20.3 85 85 E 6 9 30.33 1027 10 16 N/A
9:35 pm 21:35 Clear 73 22.7 69 20.3 86 86 E 6 9 30.33 1027 10 16 N/A
9:55 pm 21:55 Clear 73 22.6 68 20.1 86 86 E 7 11 30.33 1027 10 16 N/A
10:15 pm 22:15 Clear 73 22.6 68 20 85 85 ESE 6 9 30.33 1027 10 16 N/A
10:35 pm 22:35 Clear 72 22.1 67 19.6 86 86 E 6 9 30.36 1028 10 16 N/A
10:55 pm 22:55 Clear 71 21.9 67 19.5 86 86 E 6 9 30.36 1028 10 16 N/A
11:15 pm 23:15 Clear 71 21.7 67 19.5 87 87 ESE 6 9 30.36 1028 10 16 N/A
11:35 pm 23:35 Clear 71 21.5 67 19.3 87 87 ESE 5 7 30.36 1028 10 16 N/A
11:55 pm 23:55 Clear 69 20.3 66 18.7 91 91 E 3 6 30.39 1029 10 16 N/A

Powered by AerisWeather